Location: Bourg-d�Oueil
(42.8588°N, 0.4991°E)
Time: 14:54:20
(UTC+00:00)

Cosmos 1934 Rocket - Pass Details

Date: 16 June 2021
Orbit: 939 x 998 km, 83.0° (Epoch: 01 August)

Event Time Altitude Azimuth Distance (km) Brightness Sun altitude
Rises 20:00:25 0° 353° (N) 3,618 7.7 -4.0°
Reaches altitude 10° 20:02:54 10° 355° (N) 2,674 7.0 -4.4°
Maximum altitude 20:09:02 78° 82° (E) 979 4.0 -5.3°
Drops below altitude 10° 20:15:11 10° 169° (SSE) 2,691 5.9 -6.1°
Sets 20:17:41 0° 170° (S) 3,642 6.5 -6.5°
